Location: Caixon
(43.4106°N, 0.0273°E)
Time: 14:20:51
(UTC+00:00)

CZ-4B R/B - Pass Details

Date: 16 October 2021
Orbit: 702 x 803 km, 98.9° (Epoch: 28 November)

Event Time Altitude Azimuth Distance (km) Brightness Sun altitude
Rises 03:56:20 0° 12° (NNE) 3,325 7.1 -25.8°
Reaches altitude 10° 03:58:41 10° 11° (N) 2,390 6.3 -25.4°
Maximum altitude 04:03:58 74° 287° (WNW) 832 3.4 -24.5°
Enters shadow 04:04:42 63° 231° (SW) 887 3.5 -24.4°
